• Join FlightAware (Why Join?)
  • Login
  • US Flag GB Flag 
05:12 EST


 

Airport Tracker/Info


-or-


 

Live Flight TrackerFlight Track Log ✈ N1926A ✈ 27-Apr-2013 ✈ KJKA - KECP

Flight Track Log - Related Links

Times and Time Zones

All times are in EDT time to prevent confusion due to time zone crossing. See the N1926A flight status page for this flight to view local times or setup timezone preferences in your user account.

Time Position Orientation Groundspeed Altitude Reporting Facility
EDT Latitude Longitude Course Direction KTS MPH feet Rate Location/Type
17:27 30.2922 -87.6553 64° Northeast 149 171 700  Level Jacksonville Center
17:28 30.3061 -87.6225 64° Northeast 163 188 2,100 1,980 Climbing Jacksonville Center
17:29 30.3228 -87.5678 71° East 179 206 4,100 2,040 Climbing Jacksonville Center
17:30 30.3269 -87.5056 86° East 195 224 6,300 1,680 Climbing Jacksonville Center
17:31 30.3272 -87.4431 90° East 200 230 7,600 1,260 Climbing Jacksonville Center
17:32 30.3278 -87.3683 89° East 225 259 8,900 660 Climbing Jacksonville Center
17:33 30.3306 -87.2892 88° East 247 284 9,000 60 Climbing Jacksonville Center
17:35 30.3271 -87.1750 92° East  Level FlightAware Approximate
17:42 30.3221 -86.7178 87° East  Level FlightAware Approximate
17:43 30.3247 -86.6526 87° East  Level FlightAware Approximate
17:44 30.3273 -86.5874 87° East  Level FlightAware Approximate
17:45 30.3299 -86.5222 87° East  Level FlightAware Approximate
17:46 30.3324 -86.4570 87° East  Level FlightAware Approximate
17:47 30.3333 -86.3917 90° East  Level FlightAware Approximate
17:48 30.3334 -86.3265 90° East  Level FlightAware Approximate
17:49 30.3333 -86.2612 90° East  Level FlightAware Approximate
17:50 30.3334 -86.1959 90° East  Level FlightAware Approximate
17:51 30.3334 -86.1307 90° East  Level FlightAware Approximate
17:52 30.3342 -86.0658 41° Northeast  Level FlightAware Approximate
17:53 30.3500 -86.0089 90° East  Level FlightAware Approximate
17:54 30.3500 -85.9437 90° East  Level FlightAware Approximate
17:55 30.3500 -85.8784 90° East  Level FlightAware Approximate
17:56 30.3500 -85.8131 90° East  Level FlightAware Approximate
17:57 30.3582 -85.7956 90° East  Level Estimated
17:58 30.3582 -85.7956 90° East  Level Estimated
17:59 30.3582 -85.7956 90° East  Level Estimated
18:00 30.3582 -85.7956 90° East  Level Estimated